{"data":{"norad_id":55178,"intl_designator":"2023-004AQ","name":"ONEWEB-0717","alt_names":[],"object_type":"PAYLOAD","status":"ACTIVE","operator":null,"country":"UK","launch_date":"2023-01-10","launch_site_code":"AFETR","launch_vehicle":null,"mission":null,"orbit_class":"UNKNOWN","rcs_meters":null,"size_class":null,"mass_kg":null,"dimensions":null,"purposes":["comms"],"wikipedia_slug":null,"has_3d_model":false,"image_url":null,"decayed_at":null,"tle_current":{"epoch":"2026-09-20T00:35:09.962304Z","epoch_age_seconds":63050,"freshness":"FRESH","line1":"1 55178U 23004AQ  26263.02442086  .00000067  00000+0  13912-3 0  9991","line2":"2 55178  87.9210 347.0317 0001764 111.6776 248.4543 13.17650982180121","mean_motion":13.17650982,"eccentricity":0.0001764,"inclination_deg":87.921,"raan_deg":347.0317,"arg_perigee_deg":111.6776,"mean_anomaly_deg":248.4543,"bstar":0.00013912,"rev_number":18012,"period_min":109.28538889823,"perigee_km":1192.3699938046,"apogee_km":1195.0413398974,"semimajor_km":7571.842666851,"source":"CELESTRAK","updated_at":"2026-09-20T09:00:44.758323Z"}}}